G7DPE Weather Reports


Display with metric or nautical units.
time (UTC)temp
F
wind
direction
speed
MPH
gust
MPH
rain 1hr
in
rain 24hr
in
rain mn
in
humidity
%
barometer
mb
20260510151803 54 99 2.0 6.0 0.00 0.00 0.00 63 1019.3
20260510150903 55 65 2.0 7.0 0.00 0.00 0.00 62 1019.1
20260510150003 54 354 1.0 4.0 0.00 0.00 0.00 63 1019.4
20260510145403 54 18 1.0 4.0 0.00 0.00 0.00 64 1019.2
20260510144503 53 86 2.0 3.0 0.00 0.00 0.00 65 1019.3
20260510143603 53 144 2.0 4.0 0.00 0.00 0.00 66 1019.4
20260510142704 52 57 3.0 8.0 0.00 0.00 0.00 67 1019.6
20260510141803 53 42 2.0 9.0 0.00 0.00 0.00 67 1019.5
20260510140903 53 57 2.0 4.0 0.00 0.00 0.00 67 1019.7
20260510140005 53 139 2.0 6.0 0.00 0.00 0.00 66 1019.7
20260510135403 53 52 2.0 6.0 0.00 0.00 0.00 67 1019.6
20260510134503 53 1 2.0 6.0 0.00 0.00 0.00 68 1020.0
20260510133603 53 18 2.0 7.0 0.00 0.00 0.00 69 1019.9
20260510132703 53 79 2.0 6.0 0.00 0.00 0.00 69 1019.8
20260510131803 54 47 2.0 6.0 0.00 0.00 0.00 68 1019.8
20260510130903 53 6 1.0 3.0 0.00 0.00 0.00 68 1020.0
20260510130218 53 151 1.0 6.0 0.00 0.00 0.00 70 1020.0
20260510125403 53 4 2.0 4.0 0.00 0.00 0.00 71 1020.1
20260510124717 53 332 3.0 8.0 0.00 0.00 0.00 70 1020.0
20260510123603 53 334 1.0 3.0 0.00 0.00 0.00 71 1020.2
20260510122703 53 332 1.0 6.0 0.00 0.00 0.00 71 1020.2
20260510121803 53 63 2.0 4.0 0.00 0.00 0.00 71 1020.2
20260510120904 52 347 2.0 7.0 0.00 0.00 0.00 73 1020.4
20260510120003 53 16 2.0 6.0 0.00 0.00 0.00 72 1020.4
20260510115403 53 46 2.0 6.0 0.00 0.00 0.00 72 1020.4
20260510114503 53 71 2.0 4.0 0.00 0.00 0.00 71 1020.7
20260510113603 54 13 2.0 6.0 0.00 0.00 0.00 73 1020.5
20260510112703 53 1 2.0 9.0 0.00 0.00 0.00 73 1020.7
20260510111803 53 358 2.0 8.0 0.00 0.00 0.00 74 1020.9
20260510110904 52 102 2.0 6.0 0.00 0.00 0.00 76 1020.9
20260510110003 52 6 2.0 6.0 0.00 0.00 0.00 76 1020.9
20260510105617 52 355 2.0 6.0 0.00 0.00 0.00 76 1021.0
20260510104718 53 78 2.0 3.0 0.00 0.00 0.00 75 1021.3
20260510103603 51 44 2.0 7.0 0.00 0.00 0.00 76 1021.1
20260510102703 51 80 2.0 6.0 0.00 0.00 0.00 77 1021.0
20260510101803 52 358 1.0 4.0 0.00 0.00 0.00 77 1021.0
20260510100903 51 75 1.0 6.0 0.00 0.00 0.00 77 1021.1
20260510100003 52 66 2.0 4.0 0.00 0.00 0.00 77 1021.1
20260510095616 52 39 1.0 4.0 0.00 0.00 0.00 77 1021.2
20260510094503 51 61 2.0 6.0 0.00 0.00 0.00 78 1021.2
20260510093603 50 81 2.0 7.0 0.00 0.00 0.00 80 1021.3
20260510092703 50 5 1.0 3.0 0.00 0.00 0.00 79 1021.2
20260510092020 51 45 1.0 3.0 0.00 0.00 0.00 79 1021.2
20260510090903 51 314 2.0 7.0 0.00 0.00 0.00 78 1021.4
20260510090003 51 92 2.0 6.0 0.00 0.00 0.00 78 1021.3
20260510085618 51 76 2.0 7.0 0.00 0.00 0.00 78 1021.4
20260510084503 51 68 2.0 7.0 0.00 0.00 0.00 79 1021.6
20260510083603 51 59 2.0 4.0 0.00 0.00 0.00 78 1021.7
20260510082918 51 106 2.0 4.0 0.00 0.00 0.00 78 1021.6
20260510081803 51 6 2.0 7.0 0.00 0.00 0.00 78 1021.7
20260510080903 49 53 2.0 6.0 0.00 0.00 0.00 81 1021.6
20260510080003 49 352 2.0 7.0 0.00 0.00 0.00 82 1021.4
20260510075403 49 348 2.0 7.0 0.00 0.00 0.00 81 1021.8
20260510074503 49 36 2.0 9.0 0.00 0.00 0.00 82 1021.7
20260510073603 49 82 1.0 6.0 0.00 0.00 0.00 82 1021.7
20260510072703 49 30 2.0 4.0 0.00 0.00 0.00 83 1021.6
20260510071804 49 81 2.0 4.0 0.00 0.00 0.00 83 1021.8
20260510070903 48 181 2.0 9.0 0.00 0.00 0.00 84 1021.8
20260510070003 48 4 2.0 7.0 0.00 0.00 0.00 84 1021.3
20260510065617 48 32 2.0 7.0 0.00 0.00 0.00 84 1021.6
20260510064717 48 359 2.0 6.0 0.00 0.00 0.00 85 1021.1
20260510063603 48 350 3.0 8.0 0.00 0.00 0.00 85 1021.3
20260510062703 48 19 2.0 9.0 0.00 0.00 0.00 85 1021.2
20260510061803 48 75 2.0 9.0 0.00 0.00 0.00 86 1021.2
20260510061118 48 82 2.0 8.0 0.00 0.00 0.00 86 1021.3
20260510060003 47 65 1.0 4.0 0.00 0.00 0.00 86 1021.3
20260510055403 47 64 1.0 3.0 0.00 0.00 0.00 87 1021.2
20260510054503 47 17 2.0 6.0 0.00 0.00 0.00 87 1021.0
20260510053603 47 89 2.0 7.0 0.00 0.00 0.00 87 1021.2
20260510052703 47 274 2.0 8.0 0.00 0.00 0.00 87 1021.1
20260510051803 47 350 2.0 8.0 0.00 0.00 0.00 88 1021.2
20260510050904 47 352 2.0 7.0 0.00 0.00 0.00 87 1021.2
20260510050217 47 54 2.0 4.0 0.00 0.00 0.00 87 1021.2
20260510045403 47 3 2.0 7.0 0.00 0.00 0.00 88 1021.2
20260510044503 47 61 2.0 7.0 0.00 0.00 0.00 88 1021.4
20260510043603 47 165 2.0 4.0 0.00 0.00 0.00 89 1021.3
20260510042703 47 37 2.0 7.0 0.00 0.00 0.00 89 1020.9
20260510041803 47 46 2.0 7.0 0.00 0.00 0.00 88 1021.3
20260510040903 47 326 1.0 3.0 0.00 0.00 0.00 88 1021.2
20260510040003 47 32 1.0 4.0 0.00 0.00 0.00 88 1021.4
20260510035403 47 40 1.0 4.0 0.00 0.00 0.00 88 1021.4
20260510034504 47 65 1.0 4.0 0.00 0.00 0.00 88 1021.2
20260510033603 47 79 2.0 6.0 0.00 0.00 0.00 88 1021.4
20260510032704 47 348 2.0 7.0 0.00 0.00 0.00 88 1021.6
20260510032017 47 357 2.0 8.0 0.00 0.00 0.00 87 1021.3
20260510030904 47 354 2.0 8.0 0.00 0.00 0.00 88 1021.4
20260510030003 47 38 2.0 7.0 0.00 0.00 0.00 88 1021.6
20260510025403 47 338 2.0 9.0 0.00 0.00 0.00 88 1021.6
20260510024503 47 343 2.0 9.0 0.00 0.00 0.00 88 1021.8
20260510023603 47 355 2.0 9.0 0.00 0.00 0.00 88 1021.7
20260510022703 47 24 1.0 6.0 0.00 0.00 0.00 87 1021.7
20260510021803 47 350 2.0 6.0 0.00 0.00 0.00 87 1021.6
20260510020903 46 3 2.0 7.0 0.00 0.00 0.00 87 1021.7
20260510020003 46 63 2.0 6.0 0.00 0.00 0.00 87 1021.7
20260510015403 46 360 2.0 6.0 0.00 0.00 0.00 87 1022.0
20260510014503 47 342 2.0 7.0 0.00 0.00 0.00 86 1021.9
20260510013603 47 26 2.0 7.0 0.00 0.00 0.00 87 1021.7
20260510012917 47 20 2.0 8.0 0.00 0.00 0.00 87 1021.9
20260510011803 47 50 2.0 7.0 0.00 0.00 0.00 87 1021.8
20260510010903 47 47 1.0 4.0 0.00 0.00 0.00 88 1021.8
20260510010003 47 349 1.0 3.0 0.00 0.00 0.00 88 1021.7
20260510005403 47 346 1.0 3.0 0.00 0.00 0.00 88 1021.7
20260510004503 47 23 1.0 3.0 0.00 0.00 0.00 88 1021.8
20260510003603 48 87 1.0 4.0 0.00 0.00 0.00 88 1021.8
20260510002917 48 39 1.0 4.0 0.00 0.00 0.00 88 1021.9
20260510001803 48 328 1.0 3.0 0.00 0.00 0.00 87 1021.8
20260510000903 48 46 1.0 4.0 0.00 0.00 0.00 86 1021.8
20260510000003 48 338 2.0 6.0 0.00 0.00 0.00 85 1021.8
20260509235403 49 322 1.0 4.0 0.00 0.00 0.00 83 1021.9
20260509234503 49 17 1.0 7.0 0.00 0.00 0.00 81 1022.0
20260509233603 49 341 1.0 6.0 0.00 0.00 0.00 79 1021.7
20260509232703 49 3 1.0 6.0 0.00 0.00 0.00 76 1021.8
20260509231803 50 34 1.0 4.0 0.00 0.00 0.00 73 1021.9
20260509231117 50 7 1.0 4.0 0.00 0.00 0.00 68 1021.8
20260509230004 51 99 1.0 4.0 0.00 0.00 0.00 63 1021.8
20260509225403 51 122 1.0 3.0 0.00 0.00 0.00 62 1021.8
20260509224503 51 295 1.0 6.0 0.00 0.00 0.00 61 1021.7
20260509223603 52 358 1.0 3.0 0.00 0.00 0.00 62 1021.7
20260509222703 52 342 0.0 2.0 0.00 0.00 0.00 65 1021.9
20260509221803 52 357 0.0 1.0 0.00 0.00 0.00 65 1021.8
20260509220903 52 35 0.0 1.0 0.00 0.00 0.00 65 1021.9
20260509220218 52 0 0.0 0.0 0.00 0.00 0.00 65 1021.7
20260509215403 52 0 0.0 0.0 0.00 0.00 0.00 64 1021.3
20260509214503 53 89 0.0 1.0 0.00 0.00 0.00 63 1021.3
20260509213603 53 0 0.0 0.0 0.00 0.00 0.00 62 1021.2
20260509212704 53 0 0.0 0.0 0.00 0.00 0.00 61 1021.1
20260509211803 53 0 0.0 0.0 0.00 0.00 0.00 61 1021.4
20260509210903 54 184 0.0 1.0 0.00 0.00 0.00 59 1021.4
20260509210003 54 170 0.0 1.0 0.00 0.00 0.00 59 1021.2
20260509205403 54 0 0.0 0.0 0.00 0.00 0.00 60 1021.1
20260509204503 54 201 0.0 1.0 0.00 0.00 0.00 60 1021.2
20260509203603 55 201 0.0 1.0 0.00 0.00 0.00 59 1021.0
20260509202704 56 122 0.0 1.0 0.00 0.00 0.00 58 1020.8
20260509202019 56 0 0.0 0.0 0.00 0.00 0.00 58 1021.0
20260509200903 56 179 0.0 2.0 0.00 0.00 0.00 57 1020.6
20260509200003 56 189 0.0 1.0 0.00 0.00 0.00 59 1020.7
20260509195617 56 0 0.0 0.0 0.00 0.00 0.00 58 1020.5
20260509194503 58 194 0.0 2.0 0.00 0.00 0.00 56 1020.4
20260509193818 58 182 0.0 2.0 0.00 0.00 0.00 55 1020.6
20260509192703 59 118 0.0 3.0 0.00 0.00 0.00 55 1020.2
20260509191803 60 133 0.0 1.0 0.00 0.00 0.00 55 1020.1
20260509190903 60 173 0.0 2.0 0.00 0.00 0.00 54 1020.3
20260509190217 61 127 0.0 2.0 0.00 0.00 0.00 54 1020.2
20260509185403 61 128 1.0 2.0 0.00 0.00 0.00 53 1019.9
20260509184718 62 130 0.0 2.0 0.00 0.00 0.00 53 1019.9
20260509183817 63 141 0.0 2.0 0.00 0.00 0.00 52 1019.8
20260509182704 63 99 0.0 1.0 0.00 0.00 0.00 51 1019.7
20260509181803 64 97 0.0 2.0 0.00 0.00 0.00 49 1019.8
20260509180903 65 82 1.0 3.0 0.00 0.00 0.00 47 1019.7
20260509180003 66 87 0.0 2.0 0.00 0.00 0.00 45 1019.5
20260509175403 66 88 0.0 3.0 0.00 0.00 0.00 45 1019.6
20260509174503 66 80 1.0 2.0 0.00 0.00 0.00 45 1019.4
20260509173603 67 100 1.0 3.0 0.00 0.00 0.00 44 1019.6
20260509172703 68 92 1.0 3.0 0.00 0.00 0.00 43 1019.3
20260509172020 67 76 1.0 3.0 0.00 0.00 0.00 43 1019.5
20260509170903 67 103 1.0 2.0 0.00 0.00 0.00 44 1019.5
20260509170003 69 99 1.0 2.0 0.00 0.00 0.00 41 1019.7
20260509165403 69 147 1.0 2.0 0.00 0.00 0.00 42 1019.9
20260509164503 69 81 1.0 2.0 0.00 0.00 0.00 42 1019.6
20260509163816 69 81 1.0 2.0 0.00 0.00 0.00 43 1019.8
20260509162703 67 53 1.0 2.0 0.00 0.00 0.00 44 1019.7
20260509162017 68 357 1.0 3.0 0.00 0.00 0.00 44 1019.7
20260509160903 68 122 1.0 3.0 0.00 0.00 0.00 44 1019.8
20260509160003 68 33 1.0 4.0 0.00 0.00 0.00 43 1019.7
20260509155403 68 30 1.0 4.0 0.00 0.00 0.00 42 1019.9
20260509154503 67 115 0.0 1.0 0.00 0.00 0.00 44 1020.0
20260509153603 68 102 0.0 2.0 0.00 0.00 0.00 43 1020.0
20260509152703 68 90 1.0 3.0 0.00 0.00 0.00 42 1020.0